{"data":{"norad_id":61737,"epoch":"2026-05-25T04:06:56.418048Z","epoch_age_seconds":56881,"freshness":"FRESH","line1":"1 61737U 24199C   26145.17148632  .00003121  00000+0  27245-3 0  9998","line2":"2 61737  97.3253 345.9361 0008160 132.9467 227.2442 14.97459276128371","mean_motion":14.97459276,"eccentricity":0.000816,"inclination_deg":97.3253,"raan_deg":345.9361,"arg_perigee_deg":132.9467,"mean_anomaly_deg":227.2442,"bstar":0.00027245,"rev_number":12837,"period_min":96.162882228525,"perigee_km":569.07628208098,"apogee_km":580.42339340017,"semimajor_km":6952.8868377406,"source":"CELESTRAK","updated_at":"2026-05-25T13:38:02.530018Z"}}